Starlink 11677

operational
NORAD ID: 63751 Int'l Des: 2025-089 Owner: SPXS Country: US Constellation: starlink
LEOCIRCULAR

关于 Starlink 11677

正在加载描述...

实时位置

正在加载3D地球...

即将过境

高度历史

Altitude vs Time

uPlot chart will show altitude changes over time

两行轨道根数

1 63751U 25089A 25352.56824685 .00193581 00000-0 14727-2 0 9997
2 63751 43.0028 61.5399 0002323 278.1929 81.8675 15.70912927 37370
Epoch: Dec 18, 2025 • Age: 23 hours

当前状态

高度 366.5 km
速度 7.69 km/s
星下点 -41.83°S, 71.96°E
发射日期 Apr 29, 2025
运行时间 0.6 years
类型 internet

技术详情

分类 Payload
质量 960.00 kg
干质量 910.00 kg
总质量 960.00 kg
长度 0.30 m
直径 4.10 m
跨度 29.00 m
形状 Box + pan
制造商 SPXS
平台类型 Starlink V2MD
阶段状态 In Orbit
所有者/国家 SPXS/US

大型星座

Loading constellations...